Flag for Morocco Weather past 2 weeks in Tangier, Morocco

Now
73 °F

Passing clouds.


Feels Like: 76 °F
Forecast: N/A
Wind: 10 mph from West

Location: Tanger Aerodrome

Current Time: Jul 1, 2015 at 3:59:15 PM

Latest Report: Jul 1, 2015 at 3:30 PM


Visibility: N/A

Pressure: 30.01 "Hg

Humidity: 65%

Dew point: 61 °F

Location of TangierLocation

Historic Weather in Tangier — Graph

°F

Tangier temperature yesterday

Maximum temperature yesterday: 77 °F (at 12:00 PM)
Minimum temperature yesterday: 68 °F (at 12:00 AM)
Average temperature yesterday: 72 °F

Past Weeks' High & Low Weather Summary

 TemperatureHumidityPressure
High99 °F (Jun 27, 12:00 PM)94% (Jun 21, 4:30 AM)30.12 "Hg (Jun 21, 4:30 AM)
Low61 °F (Jun 25, 12:30 AM)10% (Jun 27, 6:00 PM)29.89 "Hg (Jun 19, 5:30 PM)
Average75 °F60%30.02 "Hg
* Reported Jun 16 2:30 PM — Jul 1 2:00 PM, Tangier, Weather by CustomWeather, © 2015

Note: Actual official high and low records may vary slightly from our data, if they occured in-between our weather recording intervals... More about our weather records

Advertising

Tangier weather history for previous 24 hours

 ConditionsComfort  
Time TempWeatherWind HumidityBarometerVisibility
2:00 PM
Wed, Jul 1
75 °FPassing clouds.12 mph61%30.01 "HgN/A
1:30 PM75 °FPassing clouds.10 mph57%30.01 "HgN/A
1:00 PM73 °FScattered clouds.12 mph65%30.04 "HgN/A
12:30 PM73 °FPartly sunny.12 mph61%30.04 "HgN/A
12:00 PM73 °FPartly sunny.12 mph61%30.04 "Hg5 mi
11:30 AM73 °FBroken clouds.12 mph61%30.04 "Hg5 mi
10:30 AM72 °FPartly sunny.12 mph69%30.01 "Hg5 mi
10:00 AM70 °FPartly sunny.13 mph73%30.01 "Hg5 mi
9:30 AM70 °FPartly sunny.10 mph73%30.01 "Hg5 mi
9:00 AM70 °FBroken clouds.10 mph73%30.01 "Hg5 mi
8:30 AM70 °FBroken clouds.10 mph78%30.01 "Hg5 mi
6:30 AM68 °FBroken clouds.2 mph83%29.98 "Hg5 mi
6:00 AM68 °FPartly sunny.1 mph83%29.98 "Hg5 mi
5:30 AM68 °FPartly sunny.No wind83%29.95 "Hg5 mi
5:00 AM68 °FPassing clouds.1 mph83%29.95 "Hg0 mi
4:30 AM68 °FPassing clouds.2 mph83%29.95 "HgN/A
11:30 PM
Tue, Jun 30
68 °FPassing clouds.1 mph83%30.01 "Hg5 mi
11:00 PM70 °FPassing clouds.2 mph83%30.01 "Hg5 mi
10:30 PM70 °FPassing clouds.2 mph83%30.01 "Hg5 mi
10:00 PM70 °FPassing clouds.2 mph78%30.01 "Hg5 mi
9:30 PM70 °FPassing clouds.3 mph78%29.98 "Hg6 mi
9:00 PM70 °FPassing clouds.2 mph78%29.98 "Hg5 mi
8:30 PM70 °FClear.3 mph73%29.98 "Hg5 mi
8:00 PM70 °FClear.3 mph78%29.98 "Hg5 mi
7:30 PM72 °FClear.5 mph73%29.98 "Hg5 mi
7:00 PM73 °FClear.7 mph69%29.98 "Hg5 mi
6:30 PM75 °FClear.8 mph65%29.98 "Hg5 mi
6:00 PM75 °FPassing clouds.6 mph65%29.95 "HgN/A
5:00 PM77 °FPassing clouds.8 mph61%29.95 "HgN/A
4:30 PM77 °FPassing clouds.9 mph61%29.98 "HgN/A
4:00 PM77 °FPassing clouds.9 mph61%29.98 "HgN/A
3:00 PM77 °FPassing clouds.9 mph57%30.01 "HgN/A
Weather by CustomWeather, © 2015

See weather overviewHow to use our weather pages